星链-5074 (STARLINK-5074 )

导读 | 豆包AI

STARLINK-5074是美国SpaceX公司星链(Starlink)星座的一员,于北京时间2023年1月31日发射入轨。作为星链第二代低轨卫星,它运行在近地轨道,依托可重复发射技术降本部署,配备太阳能电池阵与星间通信能力,为全球偏远地区提供高速低延迟宽带互联网服务,是星链全球覆盖网络建设的重要组成部分,退役后会快速离轨减少空间碎片。

Basic Information
目录编号:
55438
目录名称:
STARLINK-5074
国际标识:
2023-014AZ
轨道中心:
EARTH
卫星名称:
星链-5074
卫星全名:
星链-5074 (STARLINK-5074 )
卫星状态:
在轨 (已飞行1139 天)
发射日期:
2023-01-31 UTC
国别 :
美国 (US)
星等 :
--
Orbit Information
数据来源 国际轨道数据 AOE轨道数据
星历时间 2026-03-15T14:06:24+0800
10小时前
查看轨道信息
2026-03-09T05:00:00+0800
6天前
查看轨道信息
半长轴 6950.196km 6950.186km
偏心率 0.0002876 0.0003293
轨道倾角 70.001° 70.001°
近地点辐角 267.660° 279.437°
升交点赤经 50.254° 66.342°
平近点角 92.423° 239.798°
近地点 570.06km 569.76km
远地点 574.058km 574.338km
周期 96.107分钟 96.107分钟
每日圈数 14.983293 14.983323
Detailed Information
固有亮度:
5
最大亮度:
2.5
卫星平台:
Starlink v1.5
覆盖范围:
全球
运营商:
太空探索技术公司
运营商所在国:
美国
制造商(研发单位):
太空探索技术公司
制造商所在国:
美国
使用方式:
暂无
Satellite Introduction
星链(Starlink)计划是由太空探索技术公司(SpaceX)提出的一个巨型低轨卫星互联网星座项目,计划在2019年至2024年间在太空搭建由约1.2万颗卫星组成的“星链”网络,其中1584颗将部署在地球上空550千米处的近地轨道,并从2020年开始工作。该卫星仍在工作。
2D Orbit Map
3D Orbit Map
Orbit Altitude Analysis Chart
Orbit Inclination Analysis Chart
Orbit Comprehensive Analysis Chart
View Comprehensive Chart